Charlottetown, Prince Edward Island

5:42 PM AST on March 01, 2017 (GMT -0400)
Charlottetown

Weather History for 71706 - November, 2012

Change the Weather History Date:

Tuesday, November 27, 2012

  Actual Average Record
Temperature  
Mean Temperature 21 °F -  
Max Temperature 28 °F 32 °F - ()
Min Temperature 14 °F 18 °F - ()
Degree Days  
Heating Degree Days 44    
Moisture  
Dew Point 15 °F    
Average Humidity 68    
Maximum Humidity 93    
Minimum Humidity 43    
Precipitation  
Precipitation 0.00 in 0.17 in - ()
Sea Level Pressure  
Sea Level Pressure 30.23 in    
Wind  
Wind Speed 8 mph ()    
Max Wind Speed 13 mph    
Max Gust Speed 20 mph    
Visibility 15.0 miles    
Events      
T = Trace of Precipitation, MM = Missing Value Source: Averaged Metar Reports

Daily Weather History Graph

Daily Weather History Graph

Search for Another Location

Airport or City:

Trip Planner

Search our weather history database for the weather conditions in past years. The results will help you decide how hot, cold, wet, or windy it might be!

Date:

Astronomy

Nov. 27, 2012 Rise Set
Actual Time 7:30 AM AST 4:29 PM AST
Civil Twilight 6:56 AM AST 5:03 PM AST
Nautical Twilight 6:19 AM AST 5:40 PM AST
Astronomical Twilight 5:43 AM AST 6:16 PM AST
Moon 3:59 PM AST (11/27) 6:30 AM AST (11/27)
Length of Visible Light 10h 06m
Length of Day
8h 59m
Waxing Gibbous, 99% of the Moon is Illuminated
Nov 27
Waxing Gibbous
Nov 28
Full
Dec 6
Last Quarter
Dec 13
New
Dec 20
First Quarter

Hourly Weather History & Observations

Time (AST) Temp. Windchill Dew Point Humidity Pressure Visibility Wind Dir Wind Speed Gust Speed Precip Events Conditions
12:00 AM 26.6 °F 16.8 °F 15.8 °F 64% 30.01 in 15.0 mi West 10.4 mph 18.4 mph N/A   Mostly Cloudy
1:00 AM 26.6 °F 16.8 °F 15.8 °F 64% 30.03 in 15.0 mi West 10.4 mph - N/A   Mostly Cloudy
2:00 AM 27 °F - 16 °F 51% 30.07 in 15 mi West 9.2 mph - -   Overcast
2:00 AM 26.6 °F 16.8 °F 15.8 °F 64% 30.07 in 15.0 mi West 10.4 mph - N/A   Overcast
3:00 AM 26.6 °F 16.8 °F 15.8 °F 64% 30.10 in 15.0 mi West 10.4 mph 18.4 mph N/A   Overcast
4:00 AM 26.6 °F 16.8 °F 15.8 °F 64% 30.12 in 15.0 mi West 10.4 mph - N/A   Overcast
5:00 AM 26.6 °F 18.2 °F 17.6 °F 69% 30.14 in 15.0 mi West 8.1 mph - N/A   Overcast
6:00 AM 26.6 °F 17.5 °F 17.6 °F 69% 30.15 in 15.0 mi West 9.2 mph - N/A   Overcast
7:00 AM 26.6 °F 18.2 °F 17.6 °F 69% 30.18 in 15.0 mi West 8.1 mph - N/A   Overcast
8:00 AM 26 °F - 17 °F 56% 30.22 in 15 mi West 10.4 mph - -   Mostly Cloudy
8:00 AM 26.6 °F 16.2 °F 17.6 °F 69% 30.21 in 15.0 mi West 11.5 mph - N/A   Mostly Cloudy
9:00 AM 24.8 °F 14.6 °F 15.8 °F 69% 30.25 in 15.0 mi West 10.4 mph 18.4 mph N/A   Mostly Cloudy
10:00 AM 26.6 °F 19.1 °F 15.8 °F 64% 30.26 in 15.0 mi WNW 6.9 mph - N/A   Mostly Cloudy
11:00 AM 26.6 °F 15.7 °F 15.8 °F 64% 30.27 in 15.0 mi West 12.7 mph 19.6 mph N/A   Scattered Clouds
12:00 PM 28.4 °F 19.1 °F 15.8 °F 59% 30.26 in 15.0 mi West 10.4 mph - N/A   Mostly Cloudy
1:00 PM 26.6 °F 18.2 °F 14.0 °F 59% 30.27 in 15.0 mi WNW 8.1 mph - N/A   Mostly Cloudy
2:00 PM 28 °F - 14 °F 43% 30.28 in 15 mi West 10.4 mph - -   Scattered Clouds
2:00 PM 28.4 °F 19.7 °F 14.0 °F 55% 30.28 in 15.0 mi West 9.2 mph - N/A   Mostly Cloudy
3:00 PM 26.6 °F 19.1 °F 14.0 °F 59% 30.29 in 15.0 mi WNW 6.9 mph - N/A   Scattered Clouds
5:00 PM 24.8 °F 20.5 °F 14.0 °F 64% 30.32 in 15.0 mi West 3.5 mph - N/A   Scattered Clouds
6:00 PM 19.4 °F 14.3 °F 12.2 °F 74% 30.33 in 15.0 mi NW 3.5 mph - N/A   Partly Cloudy
7:00 PM 17.6 °F - 14.0 °F 86% 30.35 in 15.0 mi Calm Calm - N/A   Partly Cloudy
8:00 PM 15.8 °F - 12.2 °F 86% 30.35 in 15.0 mi North 2.3 mph - N/A   Partly Cloudy
9:00 PM 14.0 °F - 12.2 °F 93% 30.35 in 15.0 mi Calm Calm - N/A   Partly Cloudy
10:00 PM 14.0 °F - 12.2 °F 93% 30.35 in 15.0 mi Calm Calm - N/A   Partly Cloudy
11:00 PM 14.0 °F - 10.4 °F 86% 30.35 in 15.0 mi Calm Calm - N/A   Partly Cloudy